Regional Weather Roundup
Issued by NWS Upton, NY

Current Version | Previous Version | Graphics & Text | Print | Product List | Glossary Off
Versions: 1 2 3 4 5 6 7 8 9 10 11 12 13 14 15 16 17 18 19 20 21 22 23 24 25 26 27

000
ASUS41 KOKX 160809
RWROKX

REGIONAL WEATHER ROUNDUP
NATIONAL WEATHER SERVICE NEW YORK NY
400 AM EDT MON OCT 16 2017

NOTE: "FAIR" INDICATES FEW OR NO CLOUDS BELOW 12,000 FEET WITH NO
SIGNIFICANT WEATHER AND/OR OBSTRUCTIONS TO VISIBILITY.

NYZ071-072-176-178-NJZ106-104-160900-
NEW YORK CITY METRO AREA

CITY           SKY/WX    TMP DP  RH WIND       PRES   REMARKS
Central Park   CLOUDY    66  53  63 NW9       29.86S
Bronx Bot Gard   N/A     63  52  67 W5        29.86S
LaGuardia APRT CLOUDY    66  54  65 NW20G33   29.83R
Kennedy INTL   CLOUDY    67  59  75 NW22      29.83S
Breezy Point     N/A     66 N/A N/A NW14G22     N/A
Newark/Liberty CLOUDY    65  58  78 NW21G26   29.84S
Teterboro      LGT RAIN  64  55  72 NW15G22   29.84R
$$

NYZ177-179-078>081-160900-
LONG ISLAND NEW YORK

CITY           SKY/WX    TMP DP  RH WIND       PRES   REMARKS
Jones Beach      N/A     66 N/A N/A NW12G18     N/A
Matinecock PT    N/A     64 N/A N/A NW24G35     N/A
Farmingdale    CLOUDY    67  58  72 NW13      29.82S
MacArthur/ISP  CLOUDY    67  57  70 NW17G23   29.81R
Shirley        CLOUDY    69  57  65 NW16G25   29.82R
Mt Sinai Harb    N/A     66 N/A N/A NW12G18     N/A
Westhampton    NOT AVBL
East Hampton   CLOUDY    68  65  90 W9G16     29.79R
Montauk          N/A     68  67  96 W8        29.79S
$$

NYZ052-065-067-160900-
HUDSON VALLEY

CITY           SKY/WX    TMP DP  RH WIND       PRES   REMARKS
White Plains   LGT RAIN  61  56  83 NW13      29.84R
Larchmont Harb   N/A     63 N/A N/A NW17G25     N/A
Croton On Huds   N/A     64 N/A N/A W12         N/A
Newburgh       CLOUDY    61  59  94 W8        29.87R
Montgomery     CLOUDY    60  53  77 NW8       29.85S
Poughkeepsie   LGT RAIN  61  54  77 W10       29.83R
Albany         CLOUDY    55  44  66 W14G32    29.88R
$$

NJZ001-105-106-008-010-013-015-019>022-104-160900-
NEW JERSEY

CITY           SKY/WX    TMP DP  RH WIND       PRES   REMARKS
Newark/Liberty CLOUDY    65  58  78 NW21G26   29.84S
Teterboro      LGT RAIN  64  55  72 NW15G22   29.84R
Caldwell       LGT RAIN  62  59  90 NW6       29.86S FOG
Somerville     CLOUDY    62  60  93 CALM      29.85R
Linden         CLOUDY    66  60  79 N12G18    29.85R
Perth Amboy      N/A     64 N/A N/A NW13        N/A
Sussex         CLOUDY    61  56  83 N9        29.86F
Andover          N/A     59  57  93 CALM      29.88S
Trenton        LGT RAIN  62  57  83 NW8G23    29.87R
Millville      CLOUDY    69  59  70 NW10G23   29.88R
Atlantic City  MOCLDY    68  61  78 NW17G29   29.85S
Wrightstown    MOCLDY    66  59  77 NW12      29.85S
Toms River       N/A     66  59  78 NW8       29.87R
Belmar         CLOUDY    66  59  78 W9        29.86R
$$

PAZ047>061-062-071-160900-
EASTERN PENNSYLVANIA

CITY           SKY/WX    TMP DP  RH WIND       PRES   REMARKS
Philadelphia   CLOUDY    66  52  60 NW20G26   29.90R
Allentown      MOCLDY    62  58  86 W6        29.89S
Scranton       CLOUDY    57  46  66 NW14G22   29.93R
$$

CTZ002-004>006-009-010-012-RIZ004-006-007-MAZ004-011-015-160900-
SOUTHERN NEW ENGLAND
 IN CT

CITY           SKY/WX    TMP DP  RH WIND       PRES   REMARKS
Bradley INTL   CLOUDY    62  56  80 NW10      29.81R
Hartford       CLOUDY    66  61  84 NW3       29.79R
Danbury        LGT RAIN  61  56  83 W5        29.84R
Wtrbury/Oxford CLOUDY    61  58  90 VRB7      29.83R
Norwalk Harbor   N/A     63 N/A N/A W17G23      N/A
Bridgeport     CLOUDY    66  58  75 NW14G25   29.81R
Meriden        CLOUDY    63  57  81 NW7       29.81R
New Haven      CLOUDY    66  58  75 NW8       29.81R
Chester        NOT AVBL
Groton         CLOUDY    69  65  86 W8        29.77R
Wilimantic     LGT RAIN  63  60  90 NW9       29.80R

 IN RI

CITY           SKY/WX    TMP DP  RH WIND       PRES   REMARKS
Providence     LGT RAIN  69  67  93 W9        29.76S
Block Island   CLOUDY    66  65  96 SW16      29.78R FOG
Westerly       CLOUDY    69  66  90 W7        29.77S
 IN MA

CITY           SKY/WX    TMP DP  RH WIND       PRES   REMARKS
Boston         CLOUDY    68  62  81 W10       29.73R
Worcester      CLOUDY    58  54  86 W13       29.77S
Westfield      CLOUDY    60  51  72 NW16      29.80R
Provincetown   MOCLDY    64  63  96 SW15G24   29.73F
Nantucket      CLOUDY    65  65 100 SW15      29.79F
$$

ANZ330-335-338-340-345-350-353-355-160900-
COASTAL MARINE OBSERVATIONS


STATION/POSITION TIME  SKY/WX   TEMP    WIND        PRES    VSBY  WAVE
                                AIR SEA DIR/SP/G                  HT/PER
                 (UTC)          (F)     (DEG/KT/KT) (MB)    (MI)  (FT/S)
NY HARB ENTRANCE 0750            68 67  290/ 16/ 19 1008.7          5/ 6
20 S FIRE ISLAND 0750            68 65  280/ 16/ 21 1009.0          6/ 6
GREAT SOUTH BAY  0730            68 66  320/ 16/ 21   N/A
15 E BARNEGAT LI 0730               68                N/A           6/ 6
HUDSON CANYON    0650            68 66  210/ 19/ 23 1009.5          7/ 6
KINGS POINT      0742            67 69   10/ 19/ 22 1010.5
EXECUTION ROCKS  0730            67     300/ 14/ 19   N/A
WESTERN LI SOUND 0649            67     300/ 14/ 17   N/A           1
CENTRAL LI SOUND NOT AVBL
EASTERN LI SOUND NOT AVBL
ROBBINS REEF     0742            67     320/ 15/ 20 1010.7
$$


>>>>>>>>>>>>>>>>>>>>>>>>>>>> KEY <<<<<<<<<<<<<<<<<<<<<<<<<<<
>                                                          <
>     SKY/WX - Sky Condition/Present Weather               <
>     TMP    - Temperature in Fahrenheit                   <
>     DP     - Dew Point in Fahrenheit                     <
>     RH     - Relative Humidity in Percent                <
>     WIND   - Direction (from) and Speed in MPH           <
>     PRES   - Mean Sea Level Pressure (inches of Hg)      <
>     WCI    - Wind Chill Index                            <
>     VSB    - VISIBILITY IN MILES                         <
>     HX     - HEAT INDEX                                  <
>     TC     - TEMPERATURE IN CELSIUS                      <
>     VRB    - VARIABLE WIND DIRECTION                     <
>                                                          <
>>>>>>>>>>>>>>>>>>>>>>>>>>>> KEY <<<<<<<<<<<<<<<<<<<<<<<<<<<




USA.gov is the U.S. government's official web portal to all federal, state and local government web resources and services.